WZZ546 EYVI-EETN

Flight info

Callsign WZZ546
Flight time 0h 47m
Altitude 36000
Route TAGOL DCT LUNIT DCT TUSAS DCT DOLAT DCT KEMET
Aircraft A20N/M-SDE2E3FGHIRWXY/LB1

Departure

Time 2026-05-07 14:41
Airport Vilnius International Airport (EYVI)

Arrival

Time 2026-05-07 15:29
Airport Lennart Meri Tallinn Airport (EETN)
Time Latitude Longitude Altitude Speed Heading
2026-05-07 13:58 54.64166 25.28418 640 ft 0 kts 358°
2026-05-07 14:34 54.64183 25.28417 640 ft 5 kts 356°
2026-05-07 14:34 54.64198 25.28361 638 ft 7 kts 255°
2026-05-07 14:34 54.64176 25.28264 639 ft 10 kts 258°
2026-05-07 14:35 54.64150 25.28167 641 ft 9 kts 212°
2026-05-07 14:35 54.64079 25.28181 641 ft 12 kts 167°
2026-05-07 14:35 54.63982 25.28219 635 ft 17 kts 167°
2026-05-07 14:35 54.63889 25.28255 631 ft 14 kts 167°
2026-05-07 14:36 54.63776 25.28298 633 ft 18 kts 167°
2026-05-07 14:36 54.63667 25.28340 625 ft 18 kts 167°
2026-05-07 14:36 54.63570 25.28372 617 ft 14 kts 182°
2026-05-07 14:36 54.63466 25.28307 610 ft 18 kts 201°
2026-05-07 14:37 54.63365 25.28237 615 ft 14 kts 202°
2026-05-07 14:37 54.63150 25.28087 620 ft 20 kts 202°
2026-05-07 14:37 54.63031 25.28005 611 ft 16 kts 202°
2026-05-07 14:38 54.62930 25.27935 604 ft 18 kts 202°
2026-05-07 14:38 54.62822 25.27859 601 ft 17 kts 202°
2026-05-07 14:38 54.62727 25.27793 600 ft 13 kts 202°
2026-05-07 14:38 54.62636 25.27731 601 ft 15 kts 202°
2026-05-07 14:39 54.62546 25.27667 603 ft 10 kts 199°
2026-05-07 14:39 54.62502 25.27679 615 ft 9 kts 147°
2026-05-07 14:39 54.62449 25.27751 605 ft 9 kts 142°
2026-05-07 14:39 54.62417 25.27860 604 ft 10 kts 83°
2026-05-07 14:40 54.62446 25.27906 602 ft 0 kts 22°
2026-05-07 14:40 54.62659 25.28055 599 ft 71 kts 22°
2026-05-07 14:40 54.63324 25.28516 614 ft 131 kts 22°
2026-05-07 14:41 54.64294 25.29201 802 ft 160 kts 18°
2026-05-07 14:41 54.65318 25.29866 1539 ft 152 kts 16°
2026-05-07 14:41 54.66283 25.30459 2278 ft 149 kts 17°
2026-05-07 14:41 54.67325 25.31096 2636 ft 170 kts 17°
2026-05-07 14:42 54.68504 25.31860 3032 ft 192 kts 18°
2026-05-07 14:42 54.69817 25.32762 3513 ft 214 kts 19°
2026-05-07 14:42 54.71269 25.33786 4005 ft 235 kts 18°
2026-05-07 14:42 54.72937 25.34217 4567 ft 251 kts 355°
2026-05-07 14:43 54.74743 25.33906 5120 ft 271 kts 348°
2026-05-07 14:43 54.76627 25.33410 6072 ft 275 kts 347°
2026-05-07 14:43 54.78218 25.33023 6863 ft 280 kts 348°
2026-05-07 14:43 54.80082 25.32638 7740 ft 286 kts 349°
2026-05-07 14:44 54.82055 25.32291 8694 ft 291 kts 349°
2026-05-07 14:44 54.83823 25.32008 9538 ft 295 kts 350°
2026-05-07 14:44 54.85892 25.31693 10363 ft 304 kts 350°
2026-05-07 14:44 54.88085 25.31354 10719 ft 328 kts 350°
2026-05-07 14:45 54.90440 25.30988 11078 ft 350 kts 351°
2026-05-07 14:45 54.92890 25.30615 11848 ft 356 kts 351°
2026-05-07 14:45 54.95377 25.30240 12678 ft 361 kts 351°
2026-05-07 14:45 54.97904 25.29856 13486 ft 367 kts 351°
2026-05-07 14:46 55.00466 25.29463 14241 ft 372 kts 351°
2026-05-07 14:46 55.03021 25.29070 14981 ft 375 kts 351°
2026-05-07 14:46 55.05642 25.28665 15718 ft 380 kts 350°
2026-05-07 14:46 55.08288 25.28254 16438 ft 384 kts 350°
2026-05-07 14:47 55.10969 25.27837 17158 ft 389 kts 350°
2026-05-07 14:47 55.13678 25.27414 17863 ft 393 kts 350°
2026-05-07 14:47 55.16422 25.26986 18508 ft 398 kts 350°
2026-05-07 14:47 55.19197 25.26553 19153 ft 402 kts 350°
2026-05-07 14:48 55.21999 25.26116 19773 ft 405 kts 350°
2026-05-07 14:48 55.24824 25.25673 20383 ft 409 kts 350°
2026-05-07 14:48 55.26709 25.25378 20793 ft 412 kts 350°
2026-05-07 14:48 55.30513 25.24782 21595 ft 416 kts 350°
2026-05-07 14:49 55.33412 25.24326 22205 ft 420 kts 350°
2026-05-07 14:49 55.36336 25.23865 22815 ft 423 kts 350°
2026-05-07 14:49 55.38325 25.23552 23214 ft 426 kts 350°
2026-05-07 14:49 55.41250 25.23089 23757 ft 429 kts 350°
2026-05-07 14:50 55.44236 25.22619 24284 ft 432 kts 349°
2026-05-07 14:50 55.47248 25.22143 24787 ft 435 kts 349°
2026-05-07 14:50 55.50277 25.21758 25280 ft 439 kts 351°
2026-05-07 14:50 55.53344 25.21504 25749 ft 442 kts 352°
2026-05-07 14:51 55.56430 25.21278 26216 ft 445 kts 352°
2026-05-07 14:51 55.59535 25.21039 26664 ft 448 kts 352°
2026-05-07 14:51 55.62664 25.20782 27121 ft 451 kts 351°
2026-05-07 14:51 55.65814 25.20512 27539 ft 454 kts 351°
2026-05-07 14:52 55.68941 25.20236 27973 ft 456 kts 351°
2026-05-07 14:52 55.72126 25.19953 28399 ft 459 kts 351°
2026-05-07 14:52 55.75331 25.19667 28819 ft 462 kts 351°
2026-05-07 14:52 55.78564 25.19378 29181 ft 465 kts 351°
2026-05-07 14:53 55.81808 25.19089 29540 ft 468 kts 351°
2026-05-07 14:53 55.85076 25.18796 29899 ft 471 kts 351°
2026-05-07 14:53 55.88361 25.18502 30254 ft 474 kts 351°
2026-05-07 14:53 55.91620 25.18209 30571 ft 476 kts 351°
2026-05-07 14:54 55.94940 25.17912 30883 ft 479 kts 350°
2026-05-07 14:54 55.98283 25.17612 31223 ft 480 kts 350°
2026-05-07 14:54 56.01618 25.17313 31628 ft 480 kts 350°
2026-05-07 14:54 56.04954 25.17014 32043 ft 480 kts 350°
2026-05-07 14:55 56.08288 25.16714 32459 ft 479 kts 350°
2026-05-07 14:55 56.11617 25.16413 32860 ft 479 kts 350°
2026-05-07 14:55 56.14943 25.16111 33261 ft 478 kts 350°
2026-05-07 14:55 56.18272 25.15898 33648 ft 481 kts 354°
2026-05-07 14:56 56.21625 25.16061 34032 ft 481 kts 354°
2026-05-07 14:56 56.24974 25.16208 34352 ft 480 kts 354°
2026-05-07 14:56 56.28323 25.16346 34654 ft 480 kts 354°
2026-05-07 14:56 56.31624 25.16482 34954 ft 479 kts 354°
2026-05-07 14:57 56.34966 25.16621 35242 ft 479 kts 355°
2026-05-07 14:57 56.38301 25.16763 35517 ft 479 kts 355°
2026-05-07 14:57 56.41637 25.16906 35795 ft 479 kts 355°
2026-05-07 14:57 56.44976 25.17049 35969 ft 479 kts 355°
2026-05-07 14:58 56.51583 25.16726 35985 ft 471 kts 349°
2026-05-07 14:58 56.58091 25.15954 35990 ft 472 kts 349°
2026-05-07 14:59 56.64645 25.15193 35993 ft 471 kts 349°
2026-05-07 14:59 56.71192 25.14418 35995 ft 471 kts 349°
2026-05-07 15:00 56.77742 25.13634 35991 ft 470 kts 349°
2026-05-07 15:00 56.81122 25.13229 35996 ft 470 kts 349°
2026-05-07 15:01 56.87658 25.12443 35996 ft 470 kts 349°
2026-05-07 15:01 56.94181 25.11656 35998 ft 470 kts 349°
2026-05-07 15:02 57.00709 25.10865 36000 ft 469 kts 349°
2026-05-07 15:02 57.07226 25.10074 36005 ft 469 kts 349°
2026-05-07 15:03 57.13700 25.09285 36003 ft 469 kts 349°
2026-05-07 15:03 57.20213 25.08488 36000 ft 468 kts 349°
2026-05-07 15:04 57.26737 25.07687 36004 ft 468 kts 349°
2026-05-07 15:04 57.33246 25.06885 36006 ft 468 kts 349°
2026-05-07 15:05 57.39758 25.06082 36008 ft 468 kts 349°
2026-05-07 15:05 57.46261 25.05275 36015 ft 469 kts 349°
2026-05-07 15:06 57.52742 25.04467 36017 ft 469 kts 349°
2026-05-07 15:06 57.59248 25.03585 35970 ft 469 kts 347°
2026-05-07 15:07 57.62504 25.03111 35675 ft 469 kts 347°
2026-05-07 15:07 57.65771 25.02664 35199 ft 470 kts 348°
2026-05-07 15:07 57.69027 25.02248 34717 ft 469 kts 348°
2026-05-07 15:07 57.72281 25.01847 34260 ft 468 kts 348°
2026-05-07 15:08 57.75532 25.01448 33752 ft 469 kts 348°
2026-05-07 15:08 57.78794 25.01045 33208 ft 470 kts 348°
2026-05-07 15:08 57.82066 25.00637 32671 ft 472 kts 348°
2026-05-07 15:08 57.85340 25.00228 32150 ft 473 kts 348°
2026-05-07 15:09 57.88628 24.99817 31639 ft 474 kts 348°
2026-05-07 15:09 57.91924 24.99404 31136 ft 475 kts 348°
2026-05-07 15:09 57.95231 24.98989 30641 ft 476 kts 348°
2026-05-07 15:09 57.98532 24.98570 30153 ft 474 kts 348°
2026-05-07 15:10 58.01709 24.97742 29595 ft 464 kts 342°
2026-05-07 15:10 58.04844 24.96517 29045 ft 456 kts 339°
2026-05-07 15:10 58.07912 24.95175 28480 ft 449 kts 339°
2026-05-07 15:10 58.10939 24.93887 27949 ft 444 kts 340°
2026-05-07 15:11 58.13947 24.92670 27421 ft 441 kts 340°
2026-05-07 15:11 58.16946 24.91504 26901 ft 438 kts 341°
2026-05-07 15:11 58.19924 24.90372 26390 ft 434 kts 341°
2026-05-07 15:11 58.22866 24.89266 25887 ft 429 kts 341°
2026-05-07 15:12 58.25783 24.88169 25398 ft 425 kts 341°
2026-05-07 15:12 58.28674 24.87077 24912 ft 422 kts 341°
2026-05-07 15:12 58.31541 24.85993 24429 ft 418 kts 341°
2026-05-07 15:12 58.34384 24.84916 23964 ft 414 kts 341°
2026-05-07 15:13 58.37202 24.83845 23482 ft 411 kts 341°
2026-05-07 15:13 58.39995 24.82782 22931 ft 407 kts 341°
2026-05-07 15:13 58.42757 24.81728 22387 ft 403 kts 341°
2026-05-07 15:13 58.45499 24.80680 21862 ft 400 kts 341°
2026-05-07 15:14 58.48216 24.79639 21336 ft 396 kts 341°
2026-05-07 15:14 58.50900 24.78610 20819 ft 392 kts 342°
2026-05-07 15:14 58.53567 24.77584 20317 ft 390 kts 342°
2026-05-07 15:14 58.56212 24.76566 19823 ft 386 kts 342°
2026-05-07 15:15 58.58829 24.75558 19334 ft 381 kts 342°
2026-05-07 15:15 58.61421 24.74556 18847 ft 379 kts 342°
2026-05-07 15:15 58.63996 24.73560 18382 ft 375 kts 342°
2026-05-07 15:15 58.66542 24.72573 17844 ft 371 kts 343°
2026-05-07 15:16 58.69061 24.71596 17309 ft 367 kts 343°
2026-05-07 15:16 58.71555 24.70626 16782 ft 365 kts 343°
2026-05-07 15:16 58.74037 24.69659 16261 ft 362 kts 343°
2026-05-07 15:16 58.76492 24.68702 15750 ft 358 kts 344°
2026-05-07 15:17 58.78919 24.67754 15246 ft 354 kts 344°
2026-05-07 15:17 58.81325 24.66813 14751 ft 351 kts 345°
2026-05-07 15:17 58.83692 24.65886 14265 ft 348 kts 345°
2026-05-07 15:17 58.86067 24.64954 13778 ft 345 kts 345°
2026-05-07 15:18 58.88411 24.64034 13239 ft 342 kts 345°
2026-05-07 15:18 58.90733 24.63121 12704 ft 339 kts 346°
2026-05-07 15:18 58.93039 24.62213 12181 ft 337 kts 346°
2026-05-07 15:18 58.95325 24.61312 11668 ft 334 kts 346°
2026-05-07 15:19 58.97594 24.60416 11166 ft 332 kts 346°
2026-05-07 15:19 58.99565 24.59637 10727 ft 329 kts 347°
2026-05-07 15:19 59.01801 24.58755 10230 ft 327 kts 347°
2026-05-07 15:19 59.04021 24.57877 9723 ft 325 kts 347°
2026-05-07 15:20 59.06227 24.57003 9184 ft 322 kts 347°
2026-05-07 15:20 59.08416 24.56136 8652 ft 320 kts 347°
2026-05-07 15:20 59.10560 24.55284 8141 ft 318 kts 347°
2026-05-07 15:20 59.12724 24.54423 7621 ft 316 kts 348°
2026-05-07 15:21 59.14875 24.53564 7119 ft 314 kts 348°
2026-05-07 15:21 59.17009 24.52712 6615 ft 313 kts 348°
2026-05-07 15:21 59.19135 24.51864 6109 ft 311 kts 348°
2026-05-07 15:21 59.21237 24.51025 5567 ft 309 kts 348°
2026-05-07 15:22 59.23342 24.50428 5045 ft 299 kts 354°
2026-05-07 15:22 59.25385 24.49965 4512 ft 291 kts 354°
2026-05-07 15:22 59.27372 24.49502 4000 ft 285 kts 354°
2026-05-07 15:22 59.29312 24.49036 3481 ft 277 kts 354°
2026-05-07 15:23 59.31187 24.48564 3074 ft 267 kts 354°
2026-05-07 15:23 59.32979 24.48110 2788 ft 252 kts 354°
2026-05-07 15:23 59.34674 24.47663 2541 ft 244 kts 354°
2026-05-07 15:23 59.36371 24.47212 2308 ft 246 kts 354°
2026-05-07 15:24 59.38079 24.46757 2273 ft 249 kts 354°
2026-05-07 15:24 59.39705 24.47173 2275 ft 230 kts 28°
2026-05-07 15:24 59.40785 24.49259 2275 ft 214 kts 60°
2026-05-07 15:24 59.41235 24.51842 2266 ft 186 kts 79°
2026-05-07 15:25 59.41356 24.54227 2281 ft 171 kts 85°
2026-05-07 15:25 59.41381 24.56527 2284 ft 169 kts 87°
2026-05-07 15:25 59.41384 24.58828 2269 ft 168 kts 88°
2026-05-07 15:25 59.41379 24.60857 2219 ft 167 kts 88°
2026-05-07 15:26 59.41375 24.63040 1987 ft 153 kts 88°
2026-05-07 15:26 59.41368 24.65048 1795 ft 141 kts 88°
2026-05-07 15:26 59.41365 24.66897 1600 ft 131 kts 88°
2026-05-07 15:26 59.41360 24.68623 1415 ft 124 kts 87°
2026-05-07 15:27 59.41357 24.70339 1255 ft 129 kts 88°
2026-05-07 15:27 59.41353 24.72074 1078 ft 127 kts 87°
2026-05-07 15:27 59.41354 24.73832 890 ft 125 kts 88°
2026-05-07 15:27 59.41337 24.75530 716 ft 127 kts 89°
2026-05-07 15:28 59.41340 24.77250 538 ft 124 kts 88°
2026-05-07 15:28 59.41337 24.78919 411 ft 122 kts 90°
2026-05-07 15:28 59.41332 24.80601 236 ft 126 kts 90°
2026-05-07 15:28 59.41328 24.82241 162 ft 104 kts 90°
2026-05-07 15:29 59.41326 24.83072 161 ft 27 kts 90°
2026-05-07 15:29 59.41325 24.83441 164 ft 27 kts 91°
2026-05-07 15:29 59.41324 24.83816 164 ft 28 kts 90°
2026-05-07 15:29 59.41323 24.84210 160 ft 29 kts 90°
2026-05-07 15:30 59.41321 24.84619 159 ft 30 kts 89°
2026-05-07 15:30 59.41323 24.84930 162 ft 17 kts 83°
2026-05-07 15:30 59.41395 24.85013 162 ft 14 kts 359°
2026-05-07 15:30 59.41488 24.84957 161 ft 15 kts 302°
2026-05-07 15:31 59.41496 24.84745 161 ft 15 kts 270°
2026-05-07 15:31 59.41497 24.84515 161 ft 19 kts 270°
2026-05-07 15:31 59.41497 24.84241 161 ft 22 kts 270°
2026-05-07 15:31 59.41498 24.83927 162 ft 24 kts 270°
2026-05-07 15:32 59.41499 24.83590 162 ft 24 kts 270°
2026-05-07 15:32 59.41500 24.83245 161 ft 26 kts 270°
2026-05-07 15:32 59.41500 24.82913 161 ft 23 kts 271°
2026-05-07 15:32 59.41502 24.82585 162 ft 25 kts 270°
2026-05-07 15:33 59.41502 24.82222 161 ft 28 kts 270°
2026-05-07 15:33 59.41503 24.81890 161 ft 22 kts 270°
2026-05-07 15:33 59.41503 24.81567 161 ft 25 kts 270°
2026-05-07 15:33 59.41505 24.81211 161 ft 22 kts 269°
2026-05-07 15:34 59.41506 24.80934 161 ft 22 kts 271°
2026-05-07 15:34 59.41506 24.80633 161 ft 13 kts 270°
2026-05-07 15:34 59.41520 24.80451 161 ft 15 kts 282°
2026-05-07 15:34 59.41528 24.80263 161 ft 9 kts 270°
2026-05-07 15:35 59.41528 24.80151 161 ft 7 kts 270°
2026-05-07 15:35 59.41550 24.80063 161 ft 9 kts 344°
2026-05-07 15:35 59.41575 24.80063 161 ft 2 kts
2026-05-07 15:35 59.41585 24.80063 161 ft 0 kts